Flag for France Weather past 2 weeks in Grenoble, France

Now
37 °F

Clear.


Feels Like: 35 °F
Forecast: 50 / 80 °F
Wind: 3 mph from Southeast

Location: Grenoble / St. Geoirs

Current Time: Apr 21, 2015 at 7:37:11 AM

Latest Report: Apr 21, 2015 at 7:00 AM


Visibility: N/A

Pressure: 30.24 "Hg

Humidity: 93%

Dew point: 36 °F

Location of GrenobleLocation

Historic Weather in Grenoble — Graph

°F

Grenoble temperature yesterday

Maximum temperature yesterday: 66 °F (at 4:30 PM)
Minimum temperature yesterday: 48 °F (at 6:00 AM)
Average temperature yesterday: 56 °F

Past Weeks' High & Low Weather Summary

 TemperatureHumidityPressure
High75 °F (Apr 15, 3:00 PM)100% (Apr 14, 8:00 AM)30.45 "Hg (Apr 14, 8:00 AM)
Low28 °F (Apr 6, 6:00 AM)22% (Apr 9, 6:30 PM)29.95 "Hg (Apr 16, 6:00 PM)
Average52 °F64%30.22 "Hg
* Reported Apr 6 6:00 AM — Apr 21 6:30 AM, Grenoble, Weather by CustomWeather, © 2015

Note: Actual official high and low records may vary slightly from our data, if they occured in-between our weather recording intervals... More about our weather records

Advertising

Grenoble weather history for previous 24 hours

 ConditionsComfort  
Time TempWeatherWind HumidityBarometerVisibility
6:30 AM
Tue, Apr 21
37 °FClear.3 mph93%30.24 "HgN/A
6:00 AM36 °FClear.6 mph93%30.21 "HgN/A
5:30 AM37 °FClear.3 mph93%30.21 "HgN/A
5:00 AM39 °FClear.3 mph93%30.21 "HgN/A
4:30 AM37 °FClear.5 mph93%30.21 "HgN/A
4:00 AM39 °FClear.3 mph87%30.21 "HgN/A
3:30 AM39 °FClear.3 mph93%30.21 "HgN/A
3:00 AM41 °FClear.3 mph93%30.21 "HgN/A
2:30 AM41 °FClear.3 mph87%30.21 "HgN/A
2:00 AM43 °FQuite cool.2 mph87%30.21 "HgN/A
1:30 AM45 °FClear.3 mph81%30.21 "HgN/A
1:00 AM45 °FClear.2 mph87%30.21 "HgN/A
12:30 AM48 °FClear.2 mph71%30.18 "HgN/A
12:00 AM52 °FClear.No wind62%30.18 "HgN/A
11:00 PM
Mon, Apr 20
52 °FClear.2 mph67%30.18 "HgN/A
10:30 PM55 °FClear.2 mph55%30.18 "HgN/A
10:00 PM57 °FPassing clouds.8 mph51%30.18 "HgN/A
9:30 PM59 °FPassing clouds.10 mph51%30.18 "HgN/A
9:00 PM59 °FPassing clouds.9 mph55%30.15 "HgN/A
8:30 PM59 °FPassing clouds.9 mph55%30.15 "HgN/A
8:00 PM61 °FClear.9 mph55%30.15 "HgN/A
7:30 PM63 °FClear.10 mph49%30.15 "HgN/A
7:00 PM64 °FClear.12 mph49%30.15 "HgN/A
6:30 PM64 °FClear.12 mph46%30.15 "HgN/A
6:00 PM64 °FClear.10 mph46%30.12 "HgN/A
5:30 PM66 °FPassing clouds.12 mph46%30.12 "HgN/A
5:00 PM66 °FPassing clouds.12 mph49%30.12 "HgN/A
4:30 PM66 °FPassing clouds.10 mph56%30.15 "HgN/A
4:00 PM64 °FScattered clouds.10 mph52%30.15 "HgN/A
3:30 PM64 °FScattered clouds.9 mph56%30.15 "HgN/A
3:00 PM64 °FBroken clouds.9 mph60%30.15 "HgN/A
2:30 PM63 °FScattered clouds.8 mph56%30.18 "HgN/A
2:00 PM63 °FBroken clouds.7 mph56%30.18 "HgN/A
1:30 PM63 °FBroken clouds.6 mph59%30.18 "HgN/A
1:00 PM63 °FScattered clouds.9 mph59%30.18 "HgN/A
12:30 PM61 °FPassing clouds.6 mph55%30.18 "HgN/A
12:00 PM61 °FPassing clouds.6 mph55%30.18 "HgN/A
11:30 AM59 °FPassing clouds.3 mph59%30.18 "HgN/A
11:00 AM59 °FScattered clouds.No wind63%30.18 "HgN/A
10:30 AM57 °FPassing clouds.3 mph67%30.18 "HgN/A
10:00 AM55 °FClear.2 mph72%30.18 "HgN/A
9:30 AM55 °FPartly sunny.2 mph77%30.18 "HgN/A
9:00 AM52 °FOvercast.No wind94%30.15 "HgN/A
8:30 AM50 °FOvercast.No wind94%30.15 "HgN/A
8:00 AM50 °FPartly sunny.2 mph94%30.15 "HgN/A
7:30 AM48 °FMostly cloudy.3 mph100%30.15 "HgN/A
7:00 AM48 °FMostly cloudy.1 mph100%30.12 "HgN/A
Weather by CustomWeather, © 2015

See weather overviewHow to use our weather pages